Date,TemperatureHighF,TemperatureAvgF,TemperatureLowF,DewpointHighF,DewpointAvgF,DewpointLowF,HumidityHigh,HumidityAvg,HumidityLow,PressureMaxIn,PressureMinIn,WindSpeedMaxMPH,WindSpeedAvgMPH,GustSpeedMaxMPH,PrecipitationSumIn
2013-1-1,26.9,17.6,7.6,18.0,10.7,3.8,94,75,49,30.38,30.22,3,1,5,0.16
2013-1-2,29.3,20.1,7.0,22.1,14.7,3.1,95,80,64,30.31,30.18,6,1,10,0.00
2013-1-3,30.6,22.5,15.9,23.9,18.0,12.7,89,83,70,30.49,30.31,5,1,6,0.01
2013-1-4,39.6,23.8,10.4,26.1,17.4,7.0,89,78,54,30.42,30.22,7,1,11,0.04
2013-1-5,42.2,33.7,24.5,32.3,27.0,19.9,88,76,64,30.24,30.09,10,4,15,0.00
2013-1-6,44.8,30.4,18.8,26.1,20.5,14.2,92,68,44,30.41,30.22,4,1,9,0.00
2013-1-7,48.5,37.3,29.2,28.2,23.9,21.6,74,59,45,30.23,30.05,12,6,25,0.00
2013-1-9,51.9,39.5,33.8,33.8,30.2,28.6,84,70,50,30.37,30.31,3,0,5,0.00
2013-1-10,44.0,41.2,37.5,42.4,37.5,30.1,94,87,66,30.30,29.70,9,3,17,0.28
2013-1-11,58.0,49.9,35.1,45.8,41.7,24.2,94,75,34,29.78,29.44,14,7,21,0.00
2013-1-12,34.9,25.5,22.2,28.1,14.8,10.6,76,64,51,30.13,29.79,10,4,16,0.00
2013-1-13,26.4,15.6,7.0,7.8,5.0,1.7,82,64,41,30.42,30.21,8,3,12,0.00
2013-1-14,32.7,15.7,1.6,14.9,6.0,-2.6,86,68,42,30.57,30.42,4,0,6,0.00
2013-1-15,35.2,21.3,15.4,14.2,10.6,8.6,79,64,41,30.26,30.18,1,0,2,0.00
2013-1-16,56.0,34.1,16.6,34.9,23.4,11.1,80,66,44,30.25,30.03,8,2,13,0.00
2013-1-17,53.8,36.7,20.9,34.0,27.4,17.4,90,71,43,30.49,30.25,5,1,9,0.00
2013-1-18,61.6,47.5,36.9,35.1,31.5,28.1,72,55,36,30.34,29.95,16,7,24,0.00
2013-1-19,46.1,44.8,43.2,33.0,32.5,32.0,65,62,60,29.95,29.94,7,5,20,0.00
2013-1-20,14.4,14.2,14.0,6.7,6.4,6.1,72,70,69,30.45,30.44,0,0,15,0.00
2013-1-21,26.5,16.4,8.1,14.4,8.3,3.4,87,71,53,30.49,30.38,4,1,6,0.00
2013-1-22,35.2,20.6,12.0,15.4,8.8,3.7,80,61,43,30.41,30.26,8,2,12,0.00
2013-1-23,47.8,26.1,8.3,25.7,15.2,4.5,88,66,40,30.42,30.20,4,1,10,0.00
2013-1-24,26.7,22.8,13.1,15.0,5.3,1.8,61,47,40,30.50,30.19,8,4,12,0.00
2013-1-25,52.1,31.7,14.3,26.6,18.2,8.8,85,59,36,30.27,30.19,4,1,7,0.00
2013-1-26,60.1,42.2,23.0,36.6,23.2,18.4,85,52,26,30.25,30.00,8,3,19,0.03
2013-1-27,59.0,47.5,41.2,53.8,43.7,36.2,93,87,79,30.00,29.66,9,4,21,0.06
2013-1-28,74.6,68.8,64.9,58.9,54.7,45.9,80,62,37,29.64,29.53,12,8,28,0.00
2013-1-29,65.3,39.8,32.2,59.3,35.5,29.1,92,84,63,29.64,29.49,12,4,18,0.00
2013-1-30,32.1,21.9,6.7,29.8,17.0,2.4,92,81,66,29.99,29.60,11,5,18,0.00
2013-1-31,20.6,15.0,-1.9,14.2,8.1,-6.3,89,75,56,30.50,29.97,11,3,17,0.00
2013-2-1,28.8,8.3,-4.7,15.0,1.1,-9.3,92,73,55,30.52,30.27,10,2,16,0.00
2013-2-2,45.7,42.2,37.2,35.1,31.4,27.5,68,65,61,30.19,30.13,6,3,11,0.19
2013-2-3,54.2,40.4,21.4,28.5,24.8,17.0,87,56,34,30.28,29.81,7,2,16,0.00
2013-2-4,44.5,33.0,20.7,29.8,24.9,17.0,88,72,53,29.99,29.78,4,1,10,0.00
2013-2-5,60.9,36.7,20.3,35.4,26.2,17.5,91,69,36,30.08,29.91,6,1,8,0.00
2013-2-6,64.7,48.5,25.8,50.6,37.6,21.2,88,68,41,30.07,29.79,10,3,16,0.02
2013-2-7,55.1,44.6,28.5,49.2,37.3,24.1,92,77,48,30.22,29.79,8,2,12,0.57
2013-2-8,42.8,30.4,27.3,31.1,26.0,24.1,89,84,61,30.36,30.21,4,1,7,0.00
2013-2-10,44.2,38.9,36.3,29.5,26.5,23.8,65,61,56,29.93,29.46,17,11,34,0.01
2013-2-11,45.1,35.5,23.8,23.1,19.7,16.3,75,54,39,30.19,30.11,8,2,16,0.00
2013-2-12,40.7,23.8,18.1,26.1,18.5,13.8,96,81,53,30.20,29.97,2,0,4,0.00
2013-2-13,55.8,36.9,19.0,29.5,23.3,15.5,88,62,32,29.98,29.81,10,2,15,0.00
2013-2-14,48.6,38.1,28.7,32.7,26.1,20.8,85,63,41,30.27,29.86,11,4,19,0.00
2013-2-15,41.2,27.8,14.3,24.0,16.9,9.7,84,65,38,30.43,30.27,11,4,15,0.00
2013-2-16,43.8,27.9,12.3,21.1,16.2,8.5,88,64,38,30.38,30.02,7,2,14,0.00
2013-2-17,66.6,43.6,20.4,35.3,26.8,15.0,82,55,30,30.03,29.55,7,2,11,0.00
2013-2-18,52.7,39.6,16.7,33.5,26.4,10.8,88,60,45,30.11,29.44,15,6,22,0.01
2013-2-19,38.4,24.8,14.6,17.4,10.4,3.2,87,57,28,30.38,30.11,9,2,14,0.00
2013-2-20,24.9,20.0,14.4,16.0,7.4,3.1,76,58,47,30.38,30.16,10,4,14,0.00
2013-2-21,24.4,21.8,19.1,20.9,17.3,10.8,90,83,56,30.17,29.78,11,5,18,0.00
2013-2-22,25.9,18.2,7.4,20.4,14.3,3.6,90,84,78,30.13,29.87,8,3,19,0.09
2013-2-23,38.4,21.1,-1.0,29.5,14.5,-5.2,94,76,63,30.12,29.93,7,1,9,0.04
2013-2-24,41.3,30.6,18.8,28.3,22.1,14.8,88,72,55,30.01,29.87,8,2,12,0.00
2013-2-25,38.2,35.6,33.1,30.7,29.3,28.7,84,78,69,29.91,29.78,6,4,14,0.01
2013-2-26,35.5,32.0,28.5,28.2,27.2,26.1,91,83,72,29.94,29.75,8,5,14,0.00
2013-2-27,41.5,32.3,25.9,28.2,25.3,21.4,92,76,55,30.14,29.92,12,6,24,0.06
2013-2-28,34.4,31.9,29.4,26.2,25.0,23.9,82,75,70,30.25,30.13,7,4,13,0.00
2013-3-1,32.5,28.2,18.5,24.0,19.5,12.8,78,70,57,30.38,30.23,8,3,14,0.00
2013-3-2,43.1,26.6,8.9,25.2,16.8,5.3,92,69,42,30.41,30.14,5,1,10,0.00
2013-3-3,49.0,37.7,27.6,35.3,28.2,20.6,80,69,57,30.14,29.66,6,2,12,0.00
2013-3-4,46.1,38.8,29.8,35.2,31.3,25.7,87,75,63,29.88,29.61,9,3,15,0.00
2013-3-5,39.4,32.3,20.0,21.5,18.4,13.8,80,57,46,30.41,30.26,13,6,22,0.01
2013-3-6,45.7,28.9,11.1,23.2,18.2,7.3,88,66,40,30.47,30.23,6,2,12,0.00
2013-3-7,60.1,39.9,23.5,35.3,27.1,19.1,83,63,37,30.25,30.04,9,5,17,0.00
2013-3-8,63.1,48.9,34.2,47.9,37.1,27.4,78,65,48,30.11,29.89,9,5,16,0.00
2013-3-9,56.9,54.4,46.2,52.8,51.1,42.2,91,89,84,29.57,29.50,5,2,9,0.35
2013-3-10,45.2,30.1,23.1,41.9,26.5,18.8,96,87,81,30.01,29.52,13,8,21,0.01
2013-3-11,42.6,28.6,16.3,24.1,18.0,11.8,85,67,36,30.06,29.95,9,4,14,0.01
2013-3-12,46.8,35.5,25.4,27.9,23.0,18.2,88,63,38,30.38,30.05,14,4,22,0.00
2013-3-13,51.5,31.6,12.7,25.5,19.0,9.3,90,63,33,30.50,30.27,5,1,10,0.00
2013-3-14,77.3,54.3,36.4,42.4,34.7,24.5,69,50,27,30.26,30.03,8,2,13,0.00
2013-3-15,84.6,58.4,32.8,47.7,39.1,29.3,91,55,23,30.04,29.59,8,2,19,0.00
2013-3-16,53.5,39.8,31.9,42.4,31.8,26.7,85,73,58,30.07,29.71,7,4,13,0.00
2013-3-17,40.7,33.5,29.2,32.4,28.8,25.6,88,83,71,30.05,29.73,8,4,16,0.03
2013-3-18,54.5,41.6,33.5,33.9,29.5,21.8,92,68,30,29.98,29.76,12,5,20,0.04
2013-3-24,33.8,30.7,26.1,23.6,21.5,18.4,87,69,58,30.12,30.08,13,10,21,0.08
2013-3-25,34.3,31.2,28.6,22.9,22.1,21.0,74,69,61,30.36,30.29,9,6,15,0.00
2013-3-27,57.3,49.7,38.9,35.2,32.5,29.6,69,52,42,30.20,30.11,8,4,12,0.00
2013-3-28,57.8,36.3,26.5,36.4,28.6,23.1,89,75,42,30.20,30.17,6,1,11,0.00
2013-3-29,62.3,58.8,56.6,48.9,47.8,46.1,75,67,56,30.02,29.99,3,2,8,0.00
2013-3-30,72.7,59.7,48.9,56.5,50.2,40.6,93,72,50,30.00,29.81,5,1,9,0.16
2013-3-31,49.1,45.5,43.4,34.7,33.6,32.8,67,63,55,29.96,29.92,1,0,1,0.00
2013-4-1,50.9,39.6,29.8,33.9,23.4,16.2,81,55,31,30.29,29.97,6,3,13,0.00
2013-4-2,54.2,38.7,24.8,24.2,20.4,15.9,72,50,28,30.34,30.22,7,2,14,0.00
2013-4-3,48.8,38.4,25.1,29.2,24.2,19.4,85,58,40,30.35,30.24,6,1,9,0.00
2013-4-4,66.4,44.7,22.4,38.1,30.7,18.8,88,62,33,30.25,30.05,6,1,13,0.00
2013-4-5,72.2,50.2,30.7,43.0,35.5,27.4,92,63,28,30.13,29.72,12,4,25,0.00
2013-4-6,74.9,61.2,55.9,48.0,44.8,41.9,68,56,35,29.72,29.60,12,8,18,0.00
2013-4-9,51.6,42.4,35.4,47.9,39.7,33.0,92,90,87,29.89,29.61,13,6,21,0.50
2013-4-10,36.3,33.0,31.5,34.2,30.7,29.3,93,91,89,29.97,29.75,10,6,17,0.41
2013-4-11,39.9,34.0,30.0,29.3,26.8,24.3,89,75,60,29.90,29.75,10,6,16,0.00
2013-4-12,55.6,39.9,29.6,33.6,28.6,24.5,84,66,41,30.03,29.83,11,4,23,0.00
2013-4-13,70.4,50.4,27.3,48.8,37.9,24.3,92,65,42,30.04,29.55,9,3,19,0.00
2013-4-14,73.2,62.8,46.5,52.9,42.9,27.6,65,50,30,29.68,29.35,18,9,27,0.00
2013-4-15,55.7,46.4,37.0,34.6,29.2,24.5,74,52,36,30.01,29.66,7,2,12,0.00
2013-4-16,48.5,43.2,37.6,35.0,29.9,27.7,73,60,47,30.14,29.96,9,5,16,0.00
2013-4-17,46.5,42.4,39.1,44.6,39.6,35.1,93,90,69,30.06,29.65,9,3,16,1.47
2013-4-18,39.0,35.6,31.9,37.1,30.3,25.1,93,81,68,30.02,29.67,14,8,22,0.12
2013-4-19,54.9,41.0,29.4,32.1,27.2,24.0,81,60,38,30.10,29.98,10,5,22,0.00
2013-4-20,55.3,41.1,27.4,37.0,29.4,22.7,86,64,44,30.19,30.02,11,4,18,0.00
2013-4-21,70.2,58.7,48.1,44.1,41.1,36.4,70,53,37,30.11,29.98,13,5,21,0.00
2013-4-22,55.7,49.4,35.4,50.3,42.5,32.2,92,78,63,30.15,29.88,10,2,16,0.25
2013-4-23,35.2,32.5,29.8,32.0,29.1,27.5,92,87,77,30.19,30.07,7,4,14,0.30
2013-4-25,70.7,64.0,33.0,40.1,37.3,28.4,83,38,29,30.26,30.03,11,5,21,0.00
2013-4-26,58.2,53.0,50.1,48.5,47.2,45.6,90,81,68,30.15,30.05,9,3,13,0.05
2013-4-27,66.5,54.1,47.9,51.2,47.6,43.5,93,80,55,30.15,29.95,4,1,6,0.01
2013-4-28,81.5,63.0,45.0,57.6,51.5,42.8,93,70,43,29.96,29.66,9,3,17,0.01
2013-4-29,87.7,72.3,52.2,62.3,55.5,46.5,88,58,38,29.69,29.46,10,4,16,0.00
2013-4-30,86.3,73.4,66.3,60.3,55.3,50.0,67,54,39,29.67,29.50,14,9,25,0.00
2013-5-1,70.3,52.0,37.2,53.0,42.6,32.3,90,71,54,30.29,29.67,11,5,17,0.36
2013-5-2,46.9,37.7,32.0,36.3,32.2,26.8,92,82,50,30.49,30.26,8,4,17,0.88
2013-5-3,56.4,43.7,31.2,33.2,30.4,26.9,87,62,37,30.37,29.96,10,4,20,0.00
2013-5-4,46.3,42.2,37.4,40.1,36.1,28.8,92,79,57,30.07,29.89,8,5,16,0.03
2013-5-12,68.5,61.4,51.9,43.7,42.1,39.9,67,50,36,30.13,30.07,5,1,13,0.00
2013-5-13,84.5,65.9,46.5,56.3,48.2,39.7,79,55,34,30.10,29.84,7,2,17,0.00
2013-5-14,95.3,77.7,59.7,57.9,53.6,48.8,76,46,27,29.84,29.66,12,5,20,0.00
2013-5-15,90.2,76.5,66.3,64.6,58.7,54.5,83,56,37,29.76,29.67,8,3,13,0.00
2013-5-16,81.3,68.8,56.8,63.7,60.2,53.6,94,76,51,29.81,29.70,4,1,7,0.00
2013-5-18,81.5,80.4,78.9,71.5,70.7,70.1,76,72,70,29.64,29.57,9,6,14,0.00
2013-5-19,83.8,69.4,59.0,69.6,60.7,50.5,92,75,56,29.60,29.40,11,3,18,0.26
2013-5-20,74.9,64.6,52.2,60.5,56.1,49.3,93,75,59,29.68,29.54,6,1,9,0.01
2013-5-21,73.0,62.7,52.6,51.7,49.5,46.3,88,64,43,29.74,29.64,8,3,16,0.00
2013-5-22,71.8,59.9,48.3,54.3,49.4,44.2,87,69,51,29.93,29.72,9,3,16,0.00
2013-5-23,72.0,58.9,47.7,55.3,50.5,44.4,91,75,55,30.16,29.93,5,1,9,0.00
2013-5-24,78.0,64.9,52.0,59.9,53.7,47.7,90,69,49,30.21,29.99,8,3,13,0.00
2013-5-25,85.2,75.3,66.0,66.2,63.8,58.3,85,69,50,30.04,29.86,12,4,24,0.00
2013-5-26,83.6,75.3,68.4,70.2,66.6,63.4,86,75,63,29.92,29.73,9,5,19,0.00
2013-5-27,84.9,73.5,62.4,71.2,65.7,59.2,92,77,61,29.77,29.47,11,5,20,0.04
2013-5-28,89.3,76.7,67.4,72.7,68.3,63.8,92,76,54,29.60,29.49,10,3,15,0.00
2013-5-29,83.4,72.6,63.1,69.0,65.3,59.5,93,79,58,29.63,29.43,11,4,19,0.54
2013-5-30,79.4,64.3,57.1,64.2,58.7,54.2,94,83,55,29.63,29.48,9,1,18,0.86
2013-5-31,85.2,70.7,57.8,64.2,58.4,51.6,94,69,32,29.68,29.53,8,1,23,0.08
2013-6-1,69.4,62.8,53.9,57.8,51.3,46.5,87,66,58,29.98,29.67,9,5,17,0.00
2013-6-2,73.8,60.6,48.1,52.5,47.7,44.3,87,65,39,30.09,29.95,5,2,12,0.00
2013-6-3,77.6,62.9,44.3,58.5,51.9,41.7,93,70,44,30.00,29.75,6,2,15,0.00
2013-6-4,85.5,72.4,64.1,69.5,63.2,56.7,88,74,53,29.88,29.72,4,1,14,0.01
2013-6-5,74.9,66.3,60.3,63.7,59.2,54.9,94,79,57,29.95,29.84,6,2,12,0.75
2013-6-6,77.9,64.8,49.7,57.9,53.5,46.3,91,69,44,29.95,29.87,6,1,9,0.00
2013-6-7,79.9,63.7,45.1,58.1,51.3,42.5,94,68,40,29.98,29.83,4,0,7,0.00
2013-6-8,82.8,67.1,51.4,64.2,57.3,48.5,93,73,51,29.86,29.62,10,3,18,0.56
2013-6-9,84.7,70.1,55.8,60.6,55.9,50.8,93,66,33,29.79,29.72,10,3,17,0.01
2013-6-10,89.7,72.3,48.6,73.5,61.1,46.1,94,71,46,29.83,29.67,4,1,10,0.00
2013-6-11,98.1,83.5,69.0,70.8,65.1,61.5,82,56,32,29.75,29.61,11,3,23,0.00
2013-6-12,98.8,84.9,71.0,73.6,67.3,56.8,72,57,39,29.90,29.57,12,5,22,0.00
2013-6-13,84.6,72.3,56.4,65.0,58.5,51.7,88,63,45,30.00,29.87,6,1,14,0.00
2013-6-14,96.9,81.6,67.2,75.7,68.8,61.5,84,67,46,29.91,29.69,8,2,15,0.00
2013-6-15,83.8,77.3,71.3,71.6,68.4,64.8,88,74,59,29.87,29.75,4,1,11,0.20
2013-6-16,84.2,75.4,69.8,72.3,68.8,66.4,92,81,63,29.91,29.81,4,1,10,0.00
2013-6-17,90.3,77.1,65.3,70.5,66.5,61.6,92,72,43,29.92,29.80,3,1,7,0.00
2013-6-18,91.1,72.9,58.9,69.4,63.0,56.2,95,74,36,29.95,29.88,8,1,17,0.04
2013-6-19,88.8,75.0,60.5,68.3,63.3,57.9,94,70,42,29.93,29.82,7,2,14,0.00
2013-6-20,91.7,80.7,70.1,74.6,70.0,63.4,85,71,56,29.87,29.71,10,4,19,0.00
2013-6-21,95.1,84.4,76.7,74.7,70.9,68.2,75,65,49,29.79,29.72,10,5,21,0.00
2013-6-22,91.3,83.2,74.2,71.3,68.5,65.4,79,62,50,29.84,29.68,10,4,22,0.00
2013-6-23,90.5,78.6,65.1,75.0,68.7,63.0,95,73,54,29.80,29.67,8,4,16,1.70
2013-6-24,87.9,81.2,75.0,73.7,69.5,66.9,77,68,57,29.80,29.64,8,4,14,0.00
2013-6-25,92.7,88.8,83.8,75.1,73.3,71.4,71,60,54,29.65,29.52,11,6,26,0.16
2013-6-26,99.9,85.0,69.8,79.3,71.6,66.2,92,67,40,29.78,29.62,3,0,20,0.00
2013-6-27,86.5,76.9,67.9,77.5,71.1,65.4,94,83,65,29.88,29.75,6,1,9,1.44
2013-6-28,90.5,76.9,61.7,73.1,64.6,58.8,96,70,40,29.92,29.83,6,1,13,0.00
2013-6-29,85.4,73.2,57.6,62.6,58.2,54.4,92,62,37,29.88,29.80,11,3,19,0.00
2013-6-30,81.9,69.8,59.0,61.2,57.8,54.9,91,68,45,30.01,29.87,4,1,10,0.00
2013-7-1,84.2,69.4,51.1,60.8,55.0,47.5,92,63,35,30.09,30.01,3,1,10,0.00
2013-7-2,86.4,69.7,52.0,63.6,55.7,48.9,93,65,33,30.09,29.99,2,0,5,0.00
2013-7-3,87.6,71.8,55.3,61.0,56.3,51.7,94,62,34,30.02,29.88,3,0,6,0.00
2013-7-4,88.7,74.3,60.1,63.3,57.0,51.4,80,57,35,29.94,29.82,4,0,7,0.00
2013-7-5,92.1,78.9,63.3,66.5,60.3,56.3,81,55,35,29.85,29.74,9,2,16,0.00
2013-7-6,87.7,77.7,72.1,69.0,63.3,57.3,70,62,50,29.80,29.74,6,2,16,0.00
2013-7-7,98.4,84.3,73.8,74.4,65.9,61.4,69,55,39,29.83,29.75,7,3,15,0.00
2013-7-8,99.8,83.5,71.7,72.9,69.0,66.1,89,64,38,29.90,29.80,5,1,12,0.04
2013-7-9,106.2,88.9,71.3,82.3,72.1,67.9,90,60,35,29.88,29.70,13,2,17,0.89
2013-7-10,93.2,79.9,68.2,73.1,68.3,64.0,92,70,43,29.95,29.82,6,2,11,0.07
2013-7-11,92.5,78.2,65.8,70.1,64.2,60.4,89,64,43,30.01,29.84,5,2,16,0.00
2013-7-12,97.6,82.5,68.5,74.9,67.5,59.9,78,61,45,29.90,29.79,4,2,11,0.00
2013-7-13,90.6,80.5,72.4,77.0,70.9,66.6,84,73,61,29.89,29.79,3,0,17,0.02
2013-7-14,90.2,78.4,68.0,69.6,63.6,58.9,92,63,38,30.02,29.83,7,2,13,0.16
2013-7-15,90.9,75.0,59.8,69.4,63.0,56.4,93,69,44,30.10,29.99,6,1,10,0.00
2013-7-16,92.8,77.1,60.6,71.0,64.9,58.0,93,69,43,30.18,30.10,2,0,7,0.00
2013-7-17,94.6,79.9,64.4,72.1,67.5,61.5,93,68,44,30.23,30.08,2,0,11,0.00
2013-7-18,94.8,80.5,64.7,72.1,67.5,62.0,94,67,44,30.10,29.88,7,2,13,0.00
2013-7-19,100.0,84.8,72.4,75.6,68.2,65.1,80,60,37,29.91,29.74,5,1,12,0.00
2013-7-20,93.7,76.9,68.1,74.7,69.2,65.4,93,79,48,29.82,29.75,6,1,12,0.10
2013-7-21,89.7,76.6,65.4,73.2,69.0,63.5,95,79,56,29.82,29.71,3,0,10,0.01
2013-7-22,92.7,79.3,67.9,76.6,70.1,65.2,94,75,48,29.75,29.67,7,1,16,0.00
2013-7-23,85.3,71.3,63.2,71.6,65.8,61.0,95,83,62,29.88,29.72,8,1,16,0.04
2013-7-24,90.3,75.5,60.9,67.1,62.3,57.2,89,66,41,30.00,29.86,3,1,9,0.00
2013-7-25,77.7,69.9,62.9,72.1,65.7,59.5,92,87,74,29.99,29.91,2,0,4,0.14
2013-7-26,89.2,75.5,65.5,71.3,64.3,54.4,94,71,43,30.02,29.91,4,1,9,0.09
2013-7-27,68.7,61.0,51.9,61.2,56.5,48.8,93,85,68,30.08,29.96,1,0,2,0.25
2013-7-28,65.2,60.5,58.5,60.7,58.0,56.5,94,92,80,30.00,29.98,1,0,2,0.28
2013-7-29,65.2,62.2,61.4,63.5,60.5,59.7,95,94,93,30.00,29.93,4,1,7,2.14
2013-7-30,70.3,70.3,70.3,67.5,67.5,67.5,91,91,91,30.01,30.01,0,0,0,0.00
2013-7-31,89.2,75.9,63.1,72.3,66.9,61.0,95,76,50,30.07,29.97,1,0,3,0.01
2013-8-1,90.4,76.2,61.3,72.4,66.6,59.3,95,75,47,30.04,29.82,6,1,8,0.00
2013-8-2,90.5,76.8,64.0,77.7,70.3,61.9,94,81,64,29.91,29.74,8,2,18,1.94
2013-8-3,83.8,75.8,69.2,72.4,69.9,65.3,91,82,67,30.02,29.83,5,2,10,0.00
2013-8-4,77.4,71.8,66.5,71.3,68.0,64.4,94,88,81,30.04,29.91,5,2,12,0.30
2013-8-5,83.8,75.8,70.3,74.4,71.3,68.2,93,86,71,29.94,29.75,2,0,7,0.00
2013-8-6,90.5,80.2,69.9,78.0,73.0,68.1,95,80,57,29.80,29.68,2,0,5,0.01
2013-8-7,86.4,77.8,69.1,74.9,70.3,62.8,94,79,58,29.88,29.69,9,1,17,0.02
2013-8-8,76.7,70.8,66.6,68.9,65.2,61.3,92,83,71,29.94,29.81,4,1,9,0.03
2013-8-9,82.1,72.5,63.5,71.1,66.3,60.3,92,81,65,30.06,29.92,3,0,5,0.00
2013-8-10,87.0,72.3,59.0,69.1,63.6,57.0,95,76,50,30.13,30.00,3,0,9,0.00
2013-8-11,88.7,74.3,59.7,71.2,65.4,57.7,94,76,49,30.06,29.91,3,0,9,0.00
2013-8-12,88.4,75.9,66.2,71.2,67.7,64.1,94,78,48,29.96,29.88,4,0,5,0.38
2013-8-13,83.3,72.0,60.8,67.0,64.0,56.7,94,77,54,30.06,29.94,4,1,11,0.00
2013-8-14,82.5,68.3,55.6,66.2,60.2,53.3,94,77,53,30.11,29.99,2,0,6,0.00
2013-8-15,80.1,67.9,63.7,67.6,61.3,57.4,93,80,63,30.03,29.91,7,1,15,0.26
2013-8-16,79.5,67.9,59.5,65.7,60.6,57.5,94,79,58,30.08,29.97,3,0,10,0.00
2013-8-17,81.2,68.1,56.7,61.8,58.0,53.6,94,73,48,30.12,30.02,2,0,7,0.00
2013-8-18,84.0,67.8,50.4,65.4,58.6,48.3,94,75,51,30.09,29.96,3,0,9,0.00
2013-8-19,87.7,74.5,61.3,70.7,65.5,58.6,93,75,55,30.03,29.87,6,1,10,0.00
2013-8-20,90.7,78.8,67.9,71.4,67.5,64.0,88,70,49,29.94,29.85,7,2,18,0.00
2013-8-21,93.4,79.9,68.9,73.3,68.1,64.1,85,69,48,29.93,29.86,4,1,10,0.00
2013-8-22,91.8,79.9,69.2,73.3,68.4,63.4,86,69,50,30.00,29.89,3,0,9,0.00
2013-8-23,92.1,79.9,69.4,73.7,69.9,66.0,90,73,53,29.97,29.86,4,1,7,0.00
2013-8-24,94.9,83.3,73.9,73.8,70.5,68.1,82,67,49,29.99,29.91,8,2,12,0.00
2013-8-25,95.4,82.9,70.0,75.2,71.1,66.0,91,69,49,30.06,29.97,5,1,12,0.00
2013-8-26,95.8,83.7,73.5,73.6,70.6,68.7,86,66,44,30.02,29.91,7,2,15,0.00
2013-8-27,95.4,83.2,72.4,70.8,67.9,64.7,85,62,38,29.93,29.85,8,2,14,0.00
2013-8-28,91.8,79.5,66.4,73.5,68.7,63.1,91,71,51,29.94,29.87,4,1,10,0.00
2013-8-29,99.3,84.1,71.3,75.7,70.8,67.6,91,67,39,29.91,29.81,4,0,9,0.00
2013-8-30,102.0,83.8,68.4,77.0,69.4,64.5,89,65,33,29.85,29.70,4,0,10,0.00
2013-8-31,99.3,82.0,69.3,75.5,71.1,65.9,94,73,40,29.78,29.67,3,0,4,0.01
2013-9-1,90.7,77.9,61.4,72.7,67.0,56.8,93,72,40,29.91,29.63,5,1,10,0.01
2013-9-2,86.7,70.0,55.4,63.9,59.1,53.0,94,71,44,30.01,29.91,3,0,6,0.00
2013-9-3,90.2,68.3,47.6,64.8,55.2,45.3,94,68,34,30.04,29.94,2,0,5,0.01
2013-9-4,91.0,70.5,52.1,64.2,57.8,49.8,94,68,38,30.09,29.98,4,0,9,0.00
2013-9-5,93.4,76.6,59.0,68.7,62.5,56.4,93,65,39,30.11,29.98,3,0,7,0.00
2013-9-6,96.9,81.7,66.2,69.9,65.7,61.0,86,60,39,30.02,29.83,4,1,11,0.00
2013-9-7,102.2,65.6,74.4,75.5,24.7,-99.9,73,39,32,29.86,29.74,5,-260,13,0.00
2013-9-8,102.8,87.0,72.8,72.2,67.3,64.7,77,54,33,29.79,29.69,4,1,10,0.00
2013-9-9,97.2,79.4,72.2,68.2,53.1,-99.9,70,47,33,29.80,29.73,9,-60,15,0.00
2013-9-10,96.4,55.9,73.9,67.9,5.3,-99.9,66,31,38,29.93,29.81,9,-360,20,0.00
2013-9-11,97.0,80.2,66.8,72.8,63.7,-99.9,92,61,38,30.06,29.90,7,-9,10,0.91
2013-9-12,85.9,74.8,66.7,71.1,65.8,52.4,95,75,51,30.09,30.00,2,0,6,0.11
2013-9-13,79.5,66.2,53.9,55.0,52.2,49.5,90,63,40,30.13,29.99,3,1,10,0.00
2013-9-14,81.1,66.8,49.2,61.5,55.1,46.6,93,69,45,30.01,29.83,5,1,10,0.00
2013-9-15,83.0,72.3,59.5,69.8,62.8,57.2,92,73,59,30.08,29.81,6,2,15,1.96
2013-9-16,59.7,58.6,57.4,58.0,56.8,55.6,95,94,93,30.18,30.08,5,2,7,0.97
2013-9-17,83.4,68.9,59.0,70.8,64.1,57.6,95,86,66,30.11,29.83,6,1,12,0.05
2013-9-18,91.8,79.7,69.1,70.2,67.3,65.0,88,68,46,29.85,29.64,11,5,26,0.00
2013-9-19,91.0,77.1,64.0,70.7,65.0,55.3,80,67,49,29.91,29.65,10,4,18,0.00
2013-9-20,76.2,63.2,48.7,55.3,50.4,45.3,88,66,38,30.05,29.91,7,2,11,0.00
2013-9-21,83.9,63.7,43.9,59.1,51.0,41.7,94,68,36,29.99,29.81,2,0,5,0.00
2013-9-22,80.5,67.4,53.1,57.1,52.1,48.0,90,61,37,29.87,29.74,7,2,13,0.00
2013-9-23,78.7,66.6,54.2,55.8,52.0,47.5,81,61,41,29.77,29.64,9,4,17,0.00
2013-9-24,74.6,65.2,55.5,59.5,55.6,52.0,89,72,58,29.84,29.63,8,4,15,0.00
2013-9-25,81.6,64.3,48.0,62.5,53.4,-99.9,94,73,49,29.87,29.69,3,-15,7,0.00
2013-9-26,88.5,75.9,65.0,65.0,60.6,57.3,78,61,44,29.73,29.64,8,4,14,0.00
2013-9-27,87.9,77.2,68.0,65.5,61.4,58.7,74,59,46,29.79,29.69,10,4,19,0.00
2013-9-28,74.6,63.1,44.1,64.8,52.4,41.1,91,70,43,30.04,29.63,10,4,16,0.22
2013-9-29,77.3,44.9,39.5,52.2,2.5,-99.9,94,40,34,30.05,29.86,2,-303,11,0.00
2013-9-30,81.6,63.1,44.7,57.7,50.9,42.2,93,68,38,29.88,29.72,5,1,11,0.01
2013-10-1,87.4,68.7,51.7,65.6,56.7,48.6,91,68,42,29.88,29.75,3,0,9,0.00
2013-10-2,83.9,70.7,59.4,69.9,63.7,56.6,95,80,55,29.89,29.75,5,1,13,0.01
2013-10-3,84.7,73.2,61.2,71.1,66.4,58.9,95,80,59,29.77,29.58,7,3,14,1.69
2013-10-4,87.9,65.4,53.7,70.9,46.1,-99.9,86,64,49,29.90,29.55,12,-97,20,0.18
2013-10-5,61.3,50.4,43.4,42.1,35.5,33.1,75,58,39,30.00,29.88,9,4,19,0.02
2013-10-6,65.2,51.3,41.6,45.9,38.7,33.4,78,63,37,30.02,29.87,10,5,18,0.00
2013-10-7,75.3,53.2,34.6,48.5,40.5,32.0,92,67,33,30.13,29.99,5,1,10,0.00
2013-10-8,77.9,60.5,41.2,51.1,45.3,38.2,91,61,35,30.02,29.89,9,3,15,0.00
2013-10-9,80.5,65.7,53.4,57.3,51.5,46.0,77,61,43,29.95,29.87,6,2,12,0.00
2013-10-10,81.5,67.9,56.3,62.2,56.3,51.1,84,68,50,29.93,29.72,7,3,14,0.00
2013-10-11,81.4,68.5,55.8,61.3,54.1,43.8,87,62,36,29.84,29.61,10,4,17,0.01
2013-10-12,71.6,54.5,37.9,45.9,39.8,34.9,91,62,30,30.23,29.84,6,1,8,0.00
2013-10-13,71.3,53.1,34.4,42.1,37.8,32.0,92,61,32,30.36,30.21,8,2,14,0.00
2013-10-14,63.9,58.7,54.1,60.3,50.3,40.1,92,75,53,30.21,29.73,9,3,13,0.38
2013-10-15,59.0,40.0,42.0,55.9,6.7,-99.9,91,48,49,30.10,29.82,11,-235,17,0.00
2013-10-16,58.9,20.6,46.9,38.1,-48.1,-99.9,69,20,43,30.10,29.96,6,-619,11,0.00
2013-10-17,66.3,24.3,40.2,44.9,-41.9,-99.9,91,23,35,30.02,29.88,7,-582,16,0.00
2013-10-18,-200.0,0.0,200.0,-99.9,-99.9,-99.9,0,0,100,30.11,30.02,0,-999,0,0.00
2013-10-19,64.2,32.7,32.3,43.8,-11.6,-99.9,93,42,41,30.05,29.83,8,-364,13,0.01
2013-10-20,70.1,53.2,38.9,46.4,40.8,35.4,92,66,39,29.96,29.76,5,1,12,0.00
2013-10-21,60.3,47.0,34.9,40.7,35.3,30.6,90,66,41,30.11,29.94,6,1,9,0.00
2013-10-22,63.7,49.5,38.2,44.3,39.8,35.1,90,72,45,29.98,29.92,10,3,17,0.00
2013-10-24,29.5,28.2,27.4,25.3,24.6,24.0,87,86,84,30.42,30.40,0,0,21,0.00
2013-10-25,60.0,41.3,23.7,35.5,27.7,20.9,91,63,31,30.44,30.11,7,2,15,0.00
2013-10-26,62.6,46.1,29.2,41.7,33.4,24.7,92,65,35,30.18,30.05,6,1,12,0.00
2013-10-27,71.1,46.1,23.8,38.1,30.0,21.0,91,60,28,30.16,29.87,8,2,20,0.00
2013-10-28,65.5,49.8,35.7,54.0,42.6,30.5,88,77,53,30.07,29.92,4,1,10,0.01
2013-10-29,61.5,55.9,51.9,60.1,53.9,48.8,95,93,88,30.02,29.83,9,2,14,0.49
2013-10-30,57.8,53.6,49.4,56.4,51.8,47.7,95,94,92,29.92,29.70,4,1,7,1.41
2013-10-31,63.3,50.7,40.5,47.6,43.3,36.3,94,78,49,29.72,29.54,9,2,15,0.09
2013-11-1,61.3,45.7,35.8,43.0,37.3,32.0,90,74,42,30.04,29.66,9,2,14,0.03
2013-11-2,59.6,43.4,34.4,37.9,33.6,30.1,86,71,38,30.24,30.04,6,1,13,0.00
2013-11-3,61.5,50.6,37.3,39.6,35.7,31.2,81,58,43,30.10,29.75,11,6,22,0.00
2013-11-4,63.6,53.2,43.0,46.0,42.6,38.5,87,68,51,30.04,29.73,10,3,18,0.00
2013-11-5,58.7,50.5,36.9,56.6,47.4,34.2,93,89,81,30.03,29.77,9,3,15,0.34
2013-11-6,44.5,35.6,26.5,34.1,30.6,24.0,91,82,65,30.33,30.02,9,3,15,0.00
2013-11-7,57.5,38.7,26.3,37.4,29.8,24.3,93,74,40,30.45,30.28,6,1,12,0.01
2013-11-8,66.8,51.7,28.7,37.0,33.9,25.9,92,55,31,30.29,29.79,17,6,30,0.00
2013-11-9,68.6,49.5,31.2,40.7,34.1,27.8,90,60,30,30.29,29.92,4,0,7,0.00
2013-11-10,61.2,46.7,34.2,41.5,35.8,30.4,89,68,43,30.38,30.18,6,1,11,0.00
2013-11-11,54.2,41.1,26.4,51.9,35.6,12.2,93,81,54,30.70,30.12,6,2,14,0.00
2013-11-12,32.2,20.8,14.3,13.1,11.3,8.8,81,67,38,30.92,30.70,5,2,12,0.00
2013-11-13,52.6,35.8,14.4,27.1,19.0,9.4,82,53,35,30.69,30.09,12,4,19,0.00
2013-11-14,58.6,43.9,32.8,33.8,26.4,19.3,89,52,37,30.09,29.89,9,4,15,0.00
2013-11-15,60.9,46.5,29.2,46.5,36.9,26.1,90,71,47,29.91,29.60,8,3,17,0.00
2013-11-16,74.6,61.3,51.9,55.0,47.5,34.3,81,63,34,29.60,29.25,16,7,23,0.00
2013-11-17,63.0,55.4,37.6,55.0,34.9,23.5,76,48,22,30.07,29.21,18,8,27,0.00
2013-11-18,60.3,40.8,25.7,32.8,26.7,22.5,89,61,27,30.28,30.06,4,1,9,0.00
2013-11-19,63.1,49.9,33.0,33.7,28.1,25.1,74,45,28,30.20,29.85,11,5,18,0.00
2013-11-20,64.6,53.2,45.6,45.7,38.0,27.9,77,57,40,29.87,29.71,9,3,15,0.04
2013-11-21,47.6,33.1,23.3,42.2,29.1,19.2,89,85,77,30.55,29.87,7,4,14,0.03
2013-11-22,27.8,23.3,18.2,19.3,17.2,13.1,86,77,68,30.73,30.55,7,3,15,0.00
2013-11-23,29.2,22.6,12.5,19.2,13.8,7.8,86,69,47,30.86,30.67,4,1,10,0.00
2013-11-24,28.6,21.0,11.4,13.2,9.9,7.0,84,64,45,30.80,30.31,4,2,10,0.00
2013-11-25,40.1,30.2,20.4,26.8,18.9,11.5,87,64,50,30.30,30.18,6,2,9,0.05
2013-11-26,40.0,27.5,17.8,26.0,16.5,8.4,89,66,33,30.47,30.23,8,2,14,0.00
2013-11-27,37.8,24.0,6.9,17.7,11.3,2.4,85,60,38,30.48,30.15,6,2,12,0.00
2013-11-28,40.5,29.5,18.7,24.1,19.7,14.4,86,68,50,30.49,30.15,4,1,9,0.00
2013-11-29,56.7,35.3,16.8,30.0,22.6,13.3,88,63,35,30.49,30.17,9,2,17,0.00
2013-11-30,58.2,39.2,26.5,37.3,29.0,22.4,87,68,45,30.16,30.05,3,0,5,0.00
2013-12-1,57.4,36.2,20.7,37.2,27.9,18.0,91,74,46,30.12,29.84,4,0,6,0.00
2013-12-2,64.1,45.7,29.5,39.9,34.8,25.8,91,69,36,29.84,29.54,6,1,10,0.00
2013-12-3,67.4,47.9,37.5,41.2,36.3,32.4,83,67,35,29.59,29.45,5,1,9,0.00
2013-12-4,37.4,26.8,18.1,34.2,21.5,8.5,90,81,62,30.14,29.53,11,6,16,0.02
2013-12-5,17.9,15.0,10.9,9.9,4.1,1.3,71,62,52,30.48,30.14,8,5,15,0.00
2013-12-6,18.8,12.3,5.8,1.7,-1.8,-4.2,66,53,41,30.73,30.46,5,2,13,0.00
2013-12-7,19.0,11.0,-0.6,4.8,-1.0,-6.2,78,59,45,30.80,30.39,6,3,12,0.00
2013-12-8,21.7,18.0,7.1,18.2,12.8,2.5,87,80,56,30.39,30.01,8,2,12,0.00
2013-12-9,18.2,7.6,1.0,4.6,0.3,-4.4,92,72,51,30.49,30.25,7,1,9,0.00
2013-12-10,40.3,24.3,10.3,20.8,12.6,4.3,77,61,45,30.38,30.18,5,2,13,0.02
2013-12-11,25.0,16.4,4.2,19.9,5.9,-1.8,84,65,40,30.69,30.25,6,2,12,0.01
2013-12-12,48.1,28.3,5.7,23.5,13.9,0.6,80,56,37,30.62,30.12,8,2,16,0.00
2013-12-13,46.3,33.6,24.8,34.6,27.3,19.5,86,78,63,30.12,29.78,5,1,12,0.00
2013-12-14,31.6,24.0,12.9,25.1,17.2,9.3,86,76,58,30.26,29.98,8,4,16,0.00
2013-12-15,56.4,35.7,12.9,31.1,23.3,9.5,89,64,38,30.24,29.98,6,2,11,0.00
2013-12-16,62.5,39.6,23.0,32.9,25.9,18.1,89,61,31,30.15,29.97,6,1,8,0.00
2013-12-17,51.1,32.8,20.7,32.3,22.2,15.3,91,68,36,30.34,30.16,8,1,13,0.00
2013-12-18,67.5,49.0,24.1,36.1,30.2,17.9,77,50,29,30.20,29.70,12,4,19,0.00
2013-12-19,57.8,46.5,24.7,46.7,37.1,20.0,84,70,56,29.78,29.57,8,2,11,0.00
2013-12-20,24.3,18.3,14.4,19.9,13.6,10.2,87,82,78,30.02,29.78,9,4,13,0.00
2013-12-21,25.0,21.9,19.2,20.4,17.1,13.9,90,82,75,29.96,29.70,4,1,6,0.00
2013-12-22,23.8,16.7,-3.3,19.7,13.2,-7.7,92,86,81,30.44,29.85,6,3,11,0.05
2013-12-23,15.9,8.8,-4.9,10.7,4.5,-9.5,86,83,77,30.71,30.43,4,1,7,0.00
2013-12-24,27.7,17.8,2.1,25.4,13.7,-2.1,92,84,75,30.63,30.20,10,3,17,0.00
2013-12-25,43.7,27.6,14.5,30.6,22.2,11.6,92,81,57,30.39,30.30,6,1,10,0.32
2013-12-26,43.6,28.7,15.2,27.8,21.0,11.8,91,75,51,30.36,30.20,9,2,15,0.01
2013-12-27,53.7,33.9,15.9,29.6,23.2,13.0,90,68,36,30.35,30.16,6,1,10,0.00
2013-12-28,54.7,41.0,31.1,32.8,29.8,25.0,81,66,42,30.15,29.82,9,2,17,0.00
2013-12-29,30.4,14.0,0.2,24.7,2.7,-4.8,79,62,42,30.40,30.03,11,5,17,0.00
2013-12-30,33.5,18.7,-0.8,19.6,7.9,-5.5,84,64,45,30.36,30.22,9,2,14,0.00
2013-12-31,54.1,32.0,10.3,28.9,20.0,6.9,92,65,34,30.37,30.02,16,3,26,0.00
2014-1-1,30.5,15.8,7.7,23.6,10.7,3.4,84,80,71,30.44,30.03,8,3,14,0.00
2014-1-2,20.5,7.8,-5.8,12.6,2.8,-10.6,85,80,70,30.55,30.43,3,1,6,0.00